Weather History for KAPY - December, 2012

Change the Weather History Date:

Friday, December 7, 2012

  Actual Average (KLRD) Record (KLRD)
Temperature  
Mean Temperature 74 °F 59 °F  
Max Temperature 84 °F 69 °F 94 °F (1917)
Min Temperature 65 °F 48 °F 30 °F (1984)
Degree Days  
Heating Degree Days 0 8  
Month to date heating degree days 51  
Since 1 July heating degree days 166  
Cooling Degree Days 10 1  
Month to date cooling degree days 11  
Year to date cooling degree days 4266  
Growing Degree Days 24 (Base 50)    
Moisture  
Dew Point 64 °F    
Average Humidity 76    
Maximum Humidity 99    
Minimum Humidity 44    
Precipitation  
Precipitation 0.00 in 0.02 in 1.78 in (1931)
Month to date precipitation 0.17  
Year to date precipitation 19.49  
Sea Level Pressure  
Sea Level Pressure 29.79 in    
Wind  
Wind Speed 7 mph (SE)    
Max Wind Speed 13 mph    
Max Gust Speed 20 mph    
Visibility 9 miles    
Events      
T = Trace of Precipitation, MM = Missing Value Source: NWS Daily Summary

Daily Weather History Graph

Daily Weather History Graph

Search for Another Location

Airport or City:

Trip Planner

Search our weather history database for the weather conditions in past years. The results will help you decide how hot, cold, wet, or windy it might be!

Date:

Astronomy

Dec. 07, 2012 Rise Set
Actual Time 7:13 AM CST 5:43 PM CST
Civil Twilight 6:48 AM CST 6:09 PM CST
Nautical Twilight 6:19 AM CST 6:37 PM CST
Astronomical Twilight 5:51 AM CST 7:06 PM CST
Moon 1:04 AM CST (12/7) 1:14 PM CST (12/7)
Length of Visible Light 11h 20m
Length of Day
10h 30m
Last Quarter, 38% of the Moon is Illuminated
Dec 7
Last Quarter
Dec 13
New
Dec 19
First Quarter
Dec 28
Full
Jan 4
Last Quarter

Hourly Weather History & Observations

Time (CST) Temp. Heat Index Dew Point Humidity Pressure Visibility Wind Dir Wind Speed Gust Speed Precip Events Conditions
12:15 AM 65.5 °F - 60.3 °F 83% 29.82 in 10.0 mi SE 5.8 mph - N/A   Clear
12:35 AM 65.3 °F - 61.0 °F 86% 29.82 in 10.0 mi SE 5.8 mph - N/A   Clear
12:55 AM 65.3 °F - 62.2 °F 90% 29.81 in 10.0 mi SE 6.9 mph - N/A   Clear
1:15 AM 65.3 °F - 63.5 °F 94% 29.81 in 10.0 mi SE 6.9 mph - N/A   Clear
1:35 AM 65.3 °F - 64.0 °F 96% 29.81 in 10.0 mi ESE 6.9 mph - N/A   Clear
1:55 AM 65.3 °F - 64.6 °F 98% 29.81 in 10.0 mi SE 6.9 mph - N/A   Clear
2:15 AM 65.3 °F - 64.6 °F 98% 29.80 in 10.0 mi SE 4.6 mph - N/A   Scattered Clouds
2:35 AM 65.7 °F - 65.3 °F 99% 29.80 in 10.0 mi SE 8.1 mph - N/A   Overcast
2:55 AM 66.2 °F - 65.8 °F 99% 29.80 in 7.0 mi SE 8.1 mph - N/A   Overcast
3:15 AM 66.6 °F - 66.2 °F 99% 29.79 in 10.0 mi SE 9.2 mph - N/A   Overcast
3:35 AM 67.1 °F - 66.6 °F 98% 29.79 in 10.0 mi SE 8.1 mph - N/A   Overcast
3:55 AM 67.1 °F - 66.6 °F 98% 29.79 in 10.0 mi SE 11.5 mph - N/A   Overcast
4:15 AM 67.3 °F - 66.7 °F 98% 29.79 in 10.0 mi SE 12.7 mph 19.6 mph N/A   Overcast
4:35 AM 67.1 °F - 66.4 °F 98% 29.78 in 7.0 mi ESE 8.1 mph - N/A   Overcast
5:15 AM 66.7 °F - 66.2 °F 98% 29.78 in 7.0 mi SE 6.9 mph - N/A   Overcast
5:35 AM 67.1 °F - 66.4 °F 98% 29.78 in 7.0 mi SE 9.2 mph - N/A   Overcast
5:55 AM 67.1 °F - 66.4 °F 98% 29.79 in 7.0 mi SE 8.1 mph 16.1 mph N/A   Overcast
6:15 AM 67.3 °F - 66.4 °F 97% 29.80 in 7.0 mi SSE 9.2 mph - N/A   Overcast
6:35 AM 67.1 °F - 66.2 °F 97% 29.80 in 7.0 mi SSE 9.2 mph - N/A   Overcast
6:55 AM 67.1 °F - 65.8 °F 96% 29.81 in 7.0 mi SE 5.8 mph - N/A   Overcast
7:15 AM 66.9 °F - 65.7 °F 96% 29.82 in 7.0 mi SSE 9.2 mph - N/A   Overcast
7:35 AM 66.7 °F - 65.3 °F 95% 29.82 in 7.0 mi SSE 6.9 mph - N/A   Overcast
7:55 AM 67.1 °F - 65.3 °F 94% 29.83 in 7.0 mi SSE 5.8 mph - N/A   Overcast
8:15 AM 67.1 °F - 64.6 °F 92% 29.83 in 7.0 mi South 6.9 mph - N/A   Overcast
8:35 AM 67.1 °F - 64.6 °F 92% 29.84 in 7.0 mi South 3.5 mph - N/A   Overcast
8:55 AM 67.3 °F - 64.4 °F 90% 29.84 in 7.0 mi SSE 5.8 mph - N/A   Overcast
9:15 AM 68.0 °F - 64.4 °F 88% 29.85 in 7.0 mi SSE 6.9 mph - N/A   Overcast
9:35 AM 68.5 °F - 64.4 °F 87% 29.85 in 7.0 mi South 4.6 mph - N/A   Overcast
9:55 AM 68.9 °F - 64.2 °F 85% 29.86 in 10.0 mi South 4.6 mph - N/A   Overcast
10:15 AM 70.0 °F - 64.4 °F 82% 29.85 in 7.0 mi SE 4.6 mph - N/A   Overcast
10:35 AM 72.1 °F - 64.2 °F 76% 29.85 in 10.0 mi SE 4.6 mph - N/A   Scattered Clouds
10:55 AM 74.3 °F - 63.5 °F 69% 29.84 in 10.0 mi SSE 8.1 mph - N/A   Clear
11:15 AM 75.0 °F - 63.5 °F 67% 29.83 in 10.0 mi SSE 6.9 mph - N/A   Clear
11:35 AM 76.6 °F - 63.0 °F 62% 29.82 in 10.0 mi SE 8.1 mph - N/A   Clear
11:55 AM 77.7 °F - 63.0 °F 60% 29.82 in 10.0 mi SSE 8.1 mph - N/A   Clear
12:15 PM 79.2 °F - 62.2 °F 56% 29.80 in 10.0 mi SSE 10.4 mph - N/A   Clear
12:35 PM 79.0 °F - 61.7 °F 55% 29.79 in 10.0 mi SSE 10.4 mph 17.3 mph N/A   Clear
12:55 PM 82.2 °F 83.0 °F 62.1 °F 50% 29.77 in 10.0 mi SE 8.1 mph - N/A   Clear
1:15 PM 80.6 °F 81.6 °F 61.3 °F 52% 29.77 in 10.0 mi SSE 9.2 mph - N/A   Clear
1:35 PM 82.4 °F 82.9 °F 61.0 °F 48% 29.75 in 10.0 mi SSE 9.2 mph 17.3 mph N/A   Clear
1:55 PM 83.5 °F 83.9 °F 61.2 °F 47% 29.74 in 10.0 mi SE 10.4 mph 17.3 mph N/A   Clear
2:15 PM 84.2 °F 84.6 °F 61.5 °F 46% 29.74 in 10.0 mi SSE 6.9 mph - N/A   Clear
2:35 PM 84.4 °F 84.8 °F 61.3 °F 46% 29.73 in 10.0 mi SSE 11.5 mph - N/A   Clear
2:55 PM 84.4 °F 85.0 °F 62.1 °F 47% 29.72 in 10.0 mi SSE 11.5 mph - N/A   Clear
3:15 PM 83.7 °F 83.9 °F 61.2 °F 46% 29.72 in 10.0 mi SSE 10.4 mph 18.4 mph N/A   Clear
3:35 PM 83.5 °F 83.7 °F 60.8 °F 46% 29.71 in 10.0 mi SE 10.4 mph 16.1 mph N/A   Clear
3:55 PM 84.4 °F 84.6 °F 60.6 °F 45% 29.71 in 10.0 mi SSE 10.4 mph - N/A   Clear
4:15 PM 84.2 °F 84.4 °F 60.6 °F 45% 29.71 in 10.0 mi SSE 10.4 mph - N/A   Clear
4:35 PM 83.5 °F 83.4 °F 59.5 °F 44% 29.72 in 10.0 mi SE 9.2 mph 16.1 mph N/A   Clear
4:55 PM 82.9 °F 83.2 °F 60.4 °F 46% 29.72 in 10.0 mi SSE 9.2 mph - N/A   Clear
5:15 PM 81.5 °F 82.0 °F 60.3 °F 48% 29.72 in 10.0 mi SE 8.1 mph 16.1 mph N/A   Clear
5:35 PM 80.2 °F 81.1 °F 60.8 °F 51% 29.73 in 10.0 mi SE 5.8 mph - N/A   Clear
5:55 PM 78.1 °F - 60.8 °F 55% 29.73 in 10.0 mi ESE 4.6 mph - N/A   Clear
6:15 PM 76.6 °F - 61.2 °F 59% 29.74 in 10.0 mi Calm Calm - N/A   Clear
6:35 PM 75.2 °F - 61.3 °F 62% 29.74 in 10.0 mi ESE 3.5 mph - N/A   Clear
6:55 PM 75.7 °F - 61.7 °F 62% 29.75 in 10.0 mi ESE 6.9 mph - N/A   Clear
7:15 PM 74.7 °F - 61.9 °F 64% 29.76 in 10.0 mi ESE 4.6 mph - N/A   Clear
7:35 PM 74.8 °F - 63.1 °F 67% 29.77 in 10.0 mi SE 5.8 mph - N/A   Clear
9:15 PM 73.8 °F - 66.2 °F 77% 29.81 in 10.0 mi ESE 5.8 mph - N/A   Clear
9:55 PM 72.5 °F - 66.6 °F 82% 29.80 in 10.0 mi SE 6.9 mph - N/A   Clear
10:35 PM 71.8 °F - 67.1 °F 85% 29.81 in 10.0 mi SE 6.9 mph - N/A   Clear
10:55 PM 71.2 °F - 67.1 °F 87% 29.79 in 10.0 mi SE 8.1 mph - N/A   Clear
11:15 PM 70.9 °F - 67.3 °F 88% 29.79 in 10.0 mi ESE 5.8 mph - N/A   Clear
11:35 PM 70.2 °F - 67.3 °F 91% 29.79 in 10.0 mi ESE 5.8 mph - N/A   Clear